Location: Newark
(41.8083°N, 72.2500°W)
Time: 10:04:55
(UTC+00:00)

Vanguard 1 Rocket - Pass Details

Date: 14 December 2021
Orbit: 651 x 4224 km, 34.3° (Epoch: 15 January)

Event Time Altitude Azimuth Distance (km) Brightness Sun altitude
Exits shadow 08:39:07 53° 205° (SSW) 2,625 9.4 -38.1°
Maximum altitude 08:40:07 53° 192° (SSW) 2,697 9.5 -37.9°
Drops below altitude 10° 08:58:37 10° 123° (ESE) 6,669 12.4 -34.5°
Sets 09:04:54 0° 119° (ESE) 8,078 13.1 -33.3°
